Terug naar catalogus

STARLINK-31717

ActiefCommunicatieVLEO
NORAD 59385·PAYLOAD·🇺🇸 United States

Gelanceerd Apr 2, 2024 vanaf Vandenberg Space Force Base

Loading…

Volgende Passages (komende 24 uur)

TLE

VersSource: CelesTrak SupGP

Epoch: Sep 15, 2026, 02:12 UTC

1 59385C 24062M   26258.09215278  .00011907  00000+0  35178-3 0  2583
2 59385  53.1575  92.7313 0001098  80.6552 312.6587 15.34386317    11

Volg STARLINK-31717 in realtime met AllMySat

Download on the App Store